• In Romania
  • List of Countries
  • For 7 days
  • Water Temperature
  • Satellite Maps
  • Weather Map
  • Weather Widgets
  • user-avatar
    Login

    Hourly Weather Konyshkovo

    Today, 26 September, Wednesday

    Time Temperature Precipitation Wind Pressure Humidity
    00:00 +1°C° 0 mm 4 mps 741 mmHg 80%
    01:00 +2°C° 0 mm 3 mps 742 mmHg 81%
    02:00 +2°C° 0 mm 2 mps 742 mmHg 84%
    03:00 0°C° 0 mm 3 mps 742 mmHg 85%
    04:00 0°C° 0 mm 3 mps 743 mmHg 86%
    05:00 0°C° 0 mm 3 mps 743 mmHg 88%
    06:00 +1°C° 0 mm 3 mps 743 mmHg 85%
    07:00 +2°C° 0 mm 3 mps 744 mmHg 83%
    08:00 +3°C° 0 mm 3 mps 744 mmHg 80%
    09:00 +5°C° 0 mm 4 mps 744 mmHg 74%
    10:00 +6°C° 0 mm 4 mps 743 mmHg 68%
    11:00 +8°C° 0 mm 4 mps 743 mmHg 63%
    12:00 +9°C° 0 mm 5 mps 743 mmHg 60%
    13:00 +9°C° 0 mm 5 mps 742 mmHg 57%
    14:00 +10°C° 0 mm 5 mps 742 mmHg 55%
    15:00 +9°C° 0 mm 5 mps 741 mmHg 59%
    16:00 +8°C° 0 mm 5 mps 740 mmHg 62%
    17:00 +7°C° 0 mm 5 mps 739 mmHg 66%
    18:00 +7°C° 0.7 mm 6 mps 738 mmHg 72%
    19:00 +5°C° 0.7 mm 7 mps 737 mmHg 79%
    20:00 +5°C° 0.7 mm 8 mps 736 mmHg 85%
    21:00 +5°C° 1.3 mm 8 mps 734 mmHg 86%
    22:00 +4°C° 1.3 mm 8 mps 733 mmHg 86%
    23:00 +3°C° 1.3 mm 9 mps 731 mmHg 87%

    Tomorrow, 27 September, Thursday

    Time Temperature Precipitation Wind Pressure Humidity
    00:00 +3°C° 0.7 mm 9 mps 730 mmHg 87%
    01:00 +5°C° 0.7 mm 8 mps 729 mmHg 88%
    02:00 +5°C° 0.7 mm 8 mps 728 mmHg 88%
    03:00 +5°C° 0.9 mm 8 mps 728 mmHg 88%
    04:00 +6°C° 0.9 mm 7 mps 728 mmHg 88%
    05:00 +6°C° 0.9 mm 7 mps 727 mmHg 88%
    06:00 +6°C° 0.1 mm 7 mps 728 mmHg 84%
    07:00 +6°C° 0.1 mm 7 mps 728 mmHg 81%
    08:00 +6°C° 0.1 mm 7 mps 729 mmHg 78%
    09:00 +6°C° 0.1 mm 7 mps 729 mmHg 74%
    10:00 +7°C° 0.1 mm 8 mps 729 mmHg 70%
    11:00 +7°C° 0.1 mm 8 mps 729 mmHg 65%
    12:00 +7°C° 0.2 mm 8 mps 730 mmHg 63%
    13:00 +9°C° 0.2 mm 8 mps 730 mmHg 62%
    14:00 +9°C° 0.2 mm 8 mps 731 mmHg 60%
    15:00 +8°C° 0 mm 7 mps 731 mmHg 62%
    16:00 +8°C° 0 mm 6 mps 731 mmHg 65%
    17:00 +7°C° 0 mm 5 mps 732 mmHg 67%
    18:00 +6°C° 0 mm 4 mps 732 mmHg 70%
    19:00 +6°C° 0 mm 4 mps 732 mmHg 72%
    20:00 +5°C° 0 mm 4 mps 733 mmHg 74%
    21:00 +5°C° 0 mm 4 mps 733 mmHg 75%
    22:00 +5°C° 0 mm 4 mps 733 mmHg 76%
    23:00 +5°C° 0 mm 4 mps 733 mmHg 77%

    Day after tomorrow, 28 September, Friday

    Time Temperature Precipitation Wind Pressure Humidity
    00:00 +5°C° 0 mm 4 mps 732 mmHg 77%
    01:00 +5°C° 0 mm 4 mps 731 mmHg 76%
    02:00 +5°C° 0 mm 4 mps 731 mmHg 76%
    03:00 +6°C° 0.5 mm 5 mps 729 mmHg 80%
    04:00 +7°C° 0.5 mm 6 mps 728 mmHg 84%
    05:00 +8°C° 0.5 mm 7 mps 727 mmHg 88%
    06:00 +9°C° 1 mm 7 mps 726 mmHg 88%
    07:00 +10°C° 1 mm 7 mps 725 mmHg 88%
    08:00 +11°C° 1 mm 8 mps 724 mmHg 88%
    09:00 +11°C° 1.3 mm 8 mps 724 mmHg 86%
    10:00 +11°C° 1.3 mm 7 mps 724 mmHg 83%
    11:00 +11°C° 1.3 mm 7 mps 724 mmHg 80%
    12:00 +10°C° 0.3 mm 7 mps 725 mmHg 79%
    13:00 +7°C° 0.3 mm 8 mps 726 mmHg 78%
    14:00 +6°C° 0.3 mm 8 mps 727 mmHg 78%
    15:00 +5°C° 0.1 mm 7 mps 729 mmHg 78%
    16:00 +4°C° 0.1 mm 6 mps 730 mmHg 77%
    17:00 +3°C° 0.1 mm 5 mps 732 mmHg 77%
    18:00 +4°C° 0 mm 4 mps 733 mmHg 79%
    19:00 +3°C° 0 mm 4 mps 734 mmHg 80%
    20:00 +2°C° 0 mm 3 mps 734 mmHg 81%
    21:00 +2°C° 0 mm 3 mps 735 mmHg 82%
    22:00 +1°C° 0 mm 3 mps 735 mmHg 82%
    23:00 +1°C° 0 mm 3 mps 736 mmHg 83%

    29 September, Saturday

    Time Temperature Precipitation Wind Pressure Humidity
    00:00 +1°C° 0 mm 3 mps 736 mmHg 84%
    01:00 +1°C° 0 mm 3 mps 737 mmHg 85%
    02:00 +1°C° 0 mm 3 mps 738 mmHg 86%
    03:00 +2°C° 0 mm 2 mps 738 mmHg 86%
    04:00 +2°C° 0 mm 2 mps 738 mmHg 86%
    05:00 +1°C° 0 mm 2 mps 739 mmHg 87%
    06:00 +1°C° 0 mm 3 mps 739 mmHg 81%
    07:00 +2°C° 0 mm 3 mps 740 mmHg 75%
    08:00 +3°C° 0 mm 3 mps 740 mmHg 69%
    09:00 +4°C° 0 mm 4 mps 741 mmHg 65%
    10:00 +5°C° 0 mm 4 mps 742 mmHg 60%
    11:00 +6°C° 0 mm 4 mps 742 mmHg 55%
    12:00 +6°C° 0 mm 4 mps 742 mmHg 54%
    13:00 +6°C° 0 mm 4 mps 742 mmHg 54%
    14:00 +7°C° 0 mm 4 mps 743 mmHg 53%
    15:00 +7°C° 0 mm 3 mps 743 mmHg 58%
    16:00 +6°C° 0 mm 2 mps 743 mmHg 63%
    17:00 +5°C° 0 mm 2 mps 743 mmHg 68%
    18:00 +4°C° 0 mm 2 mps 744 mmHg 72%
    19:00 +4°C° 0 mm 1 mps 744 mmHg 75%
    20:00 +3°C° 0 mm 1 mps 745 mmHg 79%
    21:00 +2°C° 0 mm 1 mps 745 mmHg 80%
    22:00 +2°C° 0 mm 1 mps 745 mmHg 82%
    23:00 +2°C° 0 mm 1 mps 745 mmHg 84%

    30 September, Sunday

    Time Temperature Precipitation Wind Pressure Humidity
    00:00 +2°C° 0 mm 1 mps 745 mmHg 86%
    01:00 +1°C° 0 mm 1 mps 746 mmHg 88%
    02:00 +1°C° 0 mm 1 mps 746 mmHg 90%
    03:00 +1°C° 0 mm 1 mps 746 mmHg 91%
    04:00 -1°C° 0 mm 2 mps 746 mmHg 93%
    05:00 -1°C° 0 mm 2 mps 745 mmHg 94%
    06:00 +1°C° 0 mm 2 mps 745 mmHg 89%
    07:00 +2°C° 0 mm 2 mps 745 mmHg 84%
    08:00 +2°C° 0 mm 3 mps 745 mmHg 79%
    09:00 +4°C° 0 mm 3 mps 745 mmHg 72%
    10:00 +5°C° 0 mm 4 mps 745 mmHg 65%
    11:00 +7°C° 0 mm 4 mps 745 mmHg 58%
    12:00 +7°C° 0 mm 5 mps 744 mmHg 57%
    13:00 +8°C° 0 mm 5 mps 744 mmHg 57%
    14:00 +8°C° 0 mm 5 mps 744 mmHg 57%
    15:00 +7°C° 0 mm 5 mps 743 mmHg 61%
    16:00 +7°C° 0 mm 4 mps 743 mmHg 65%
    17:00 +6°C° 0 mm 4 mps 743 mmHg 69%
    18:00 +6°C° 0 mm 4 mps 743 mmHg 72%
    19:00 +6°C° 0 mm 4 mps 743 mmHg 74%
    20:00 +5°C° 0 mm 4 mps 743 mmHg 77%
    21:00 +5°C° 0 mm 4 mps 742 mmHg 77%
    22:00 +6°C° 0 mm 4 mps 742 mmHg 76%
    23:00 +6°C° 0 mm 4 mps 742 mmHg 76%

    1 October, Monday

    Time Temperature Precipitation Wind Pressure Humidity
    00:00 +5°C° 0 mm 4 mps 742 mmHg 77%
    01:00 +5°C° 0 mm 4 mps 742 mmHg 77%
    02:00 +5°C° 0 mm 4 mps 742 mmHg 78%
    03:00 +5°C° 0 mm 4 mps 742 mmHg 79%
    04:00 +5°C° 0 mm 4 mps 742 mmHg 81%
    05:00 +5°C° 0 mm 4 mps 742 mmHg 82%
    06:00 +5°C° 0 mm 4 mps 742 mmHg 80%
    07:00 +6°C° 0 mm 4 mps 742 mmHg 79%
    08:00 +6°C° 0 mm 4 mps 742 mmHg 77%
    09:00 +7°C° 0 mm 4 mps 742 mmHg 72%
    10:00 +9°C° 0 mm 5 mps 742 mmHg 67%
    11:00 +10°C° 0 mm 5 mps 742 mmHg 62%
    12:00 +10°C° 0 mm 5 mps 742 mmHg 60%
    13:00 +12°C° 0 mm 4 mps 742 mmHg 58%
    14:00 +12°C° 0 mm 4 mps 742 mmHg 57%
    15:00 +11°C° 0 mm 4 mps 742 mmHg 62%
    16:00 +10°C° 0 mm 3 mps 741 mmHg 68%
    17:00 +9°C° 0 mm 2 mps 741 mmHg 74%
    18:00 +8°C° 0 mm 2 mps 741 mmHg 77%
    19:00 +7°C° 0 mm 2 mps 742 mmHg 79%
    20:00 +6°C° 0 mm 2 mps 742 mmHg 82%
    21:00 +5°C° 0 mm 2 mps 742 mmHg 83%
    22:00 +5°C° 0 mm 2 mps 742 mmHg 84%
    23:00 +5°C° 0 mm 2 mps 742 mmHg 85%
    Show more